Time,TemperatureF,DewpointF,PressureIn,WindDirection,WindDirectionDegrees,WindSpeedMPH,WindSpeedGustMPH,Humidity,HourlyPrecipIn,Conditions,Clouds,dailyrainin,SoftwareType,DateUTC
2013-04-17 00:00:00,57.3,51.2,30.05,South,187,3.1,6.0,80,0.00,FEW,,0.00,WeatherDisplay:10.37,2013-04-17 04:00:00,
2013-04-17 00:05:00,57.2,51.1,30.05,West,260,6.0,8.1,80,0.00,BKN,,0.00,WeatherDisplay:10.37,2013-04-17 04:05:00,
2013-04-17 00:10:00,57.3,51.2,30.05,West,272,1.6,4.6,80,0.00,BKN,,0.00,WeatherDisplay:10.37,2013-04-17 04:10:00,
2013-04-17 00:15:00,57.3,51.2,30.05,WNW,289,3.4,6.9,80,0.00,BKN,,0.00,WeatherDisplay:10.37,2013-04-17 04:15:00,
2013-04-17 00:20:00,57.4,51.3,30.06,West,279,4.0,13.8,80,0.00,BKN,,0.00,WeatherDisplay:10.37,2013-04-17 04:20:00,
2013-04-17 00:25:00,57.4,51.3,30.06,WSW,258,3.7,6.9,80,0.00,BKN,,0.00,WeatherDisplay:10.37,2013-04-17 04:25:00,
2013-04-17 00:30:00,57.5,51.0,30.05,WSW,257,3.2,12.7,79,0.00,BKN,,0.00,WeatherDisplay:10.37,2013-04-17 04:30:00,
2013-04-17 00:35:00,57.6,51.1,30.06,SW,223,1.2,3.5,79,0.00,BKN,,0.00,WeatherDisplay:10.37,2013-04-17 04:35:00,
2013-04-17 00:40:00,57.6,51.5,30.06,West,265,2.2,3.5,80,0.00,BKN,,0.00,WeatherDisplay:10.37,2013-04-17 04:40:00,
2013-04-17 00:45:00,57.7,51.6,30.07,West,281,1.7,3.5,80,0.00,BKN,,0.00,WeatherDisplay:10.37,2013-04-17 04:45:00,
2013-04-17 00:50:00,57.7,51.6,30.07,West,259,4.2,11.5,80,0.00,BKN,,0.00,WeatherDisplay:10.37,2013-04-17 04:50:00,
2013-04-17 00:55:00,57.7,51.6,30.07,WNW,282,4.5,10.4,80,0.00,BKN,,0.00,WeatherDisplay:10.37,2013-04-17 04:55:00,
2013-04-17 01:00:00,57.7,51.6,30.08,WSW,253,2.1,3.5,80,0.00,BKN,,0.00,WeatherDisplay:10.37,2013-04-17 05:00:00,
2013-04-17 01:05:00,57.7,51.9,30.07,WNW,286,1.3,3.5,81,0.00,OVC,,0.00,WeatherDisplay:10.37,2013-04-17 05:05:00,
2013-04-17 01:10:00,57.3,52.5,30.07,SSW,213,2.4,4.6,84,0.00,OVC,,0.00,WeatherDisplay:10.37,2013-04-17 05:10:00,
2013-04-17 01:15:00,56.8,52.3,30.07,WSW,245,1.0,3.5,85,0.00,OVC,,0.00,WeatherDisplay:10.37,2013-04-17 05:15:00,
2013-04-17 01:20:00,56.5,52.4,30.06,WSW,240,0.2,1.0,86,0.00,OVC,,0.00,WeatherDisplay:10.37,2013-04-17 05:20:00,
2013-04-17 01:25:00,56.1,52.3,30.07,NW,309,1.8,3.5,87,0.00,OVC,,0.00,WeatherDisplay:10.37,2013-04-17 05:25:00,
2013-04-17 01:30:00,55.9,52.4,30.06,WSW,250,1.7,3.5,88,0.00,OVC,,0.00,WeatherDisplay:10.37,2013-04-17 05:30:00,
2013-04-17 01:35:00,55.7,52.5,30.06,West,265,3.6,5.8,89,0.00,OVC,,0.00,WeatherDisplay:10.37,2013-04-17 05:35:00,
2013-04-17 01:40:00,55.6,52.4,30.07,WNW,286,2.7,3.5,89,0.00,OVC,,0.00,WeatherDisplay:10.37,2013-04-17 05:40:00,
2013-04-17 01:45:00,55.6,52.4,30.07,West,269,1.9,3.5,89,0.00,OVC,,0.00,WeatherDisplay:10.37,2013-04-17 05:45:00,
2013-04-17 01:50:00,55.5,52.6,30.06,WNW,290,0.9,3.5,90,0.00,OVC,,0.00,WeatherDisplay:10.37,2013-04-17 05:50:00,
2013-04-17 01:55:00,55.5,52.6,30.07,SW,219,2.6,5.8,90,0.00,OVC,,0.00,WeatherDisplay:10.37,2013-04-17 05:55:00,
2013-04-17 02:00:00,55.6,52.7,30.07,WNW,286,1.0,5.8,90,0.00,OVC,,0.00,WeatherDisplay:10.37,2013-04-17 06:00:00,
2013-04-17 02:05:00,55.7,52.5,30.07,WNW,288,4.8,7.0,89,0.00,BKN,,0.00,WeatherDisplay:10.37,2013-04-17 06:05:00,
2013-04-17 02:10:00,55.8,52.6,30.07,WSW,250,2.1,8.1,89,0.00,BKN,,0.00,WeatherDisplay:10.37,2013-04-17 06:10:00,
2013-04-17 02:15:00,55.8,52.6,30.07,West,269,2.2,3.5,89,0.00,BKN,,0.00,WeatherDisplay:10.37,2013-04-17 06:15:00,
2013-04-17 02:20:00,55.8,52.6,30.07,West,277,2.8,8.1,89,0.00,BKN,,0.00,WeatherDisplay:10.37,2013-04-17 06:20:00,
2013-04-17 02:25:00,55.9,52.7,30.07,West,261,4.0,9.0,89,0.00,BKN,,0.00,WeatherDisplay:10.37,2013-04-17 06:25:00,
2013-04-17 02:30:00,56.0,52.8,30.07,WSW,252,4.7,7.0,89,0.00,BKN,,0.00,WeatherDisplay:10.37,2013-04-17 06:30:00,
2013-04-17 02:35:00,56.2,53.0,30.06,NW,304,3.4,4.6,89,0.00,BKN,,0.00,WeatherDisplay:10.37,2013-04-17 06:35:00,
2013-04-17 02:40:00,56.2,53.0,30.07,WSW,242,2.0,3.5,89,0.00,BKN,,0.00,WeatherDisplay:10.37,2013-04-17 06:40:00,
2013-04-17 02:45:00,56.2,53.0,30.07,WSW,244,2.1,5.0,89,0.00,BKN,,0.00,WeatherDisplay:10.37,2013-04-17 06:45:00,
2013-04-17 02:50:00,56.2,53.0,30.07,West,273,2.0,3.5,89,0.00,BKN,,0.00,WeatherDisplay:10.37,2013-04-17 06:50:00,
2013-04-17 02:55:00,56.2,53.0,30.07,West,267,3.9,11.5,89,0.00,BKN,,0.00,WeatherDisplay:10.37,2013-04-17 06:55:00,
2013-04-17 03:00:00,56.2,53.0,30.07,West,277,2.6,4.6,89,0.00,BKN,,0.00,WeatherDisplay:10.37,2013-04-17 07:00:00,
2013-04-17 03:05:00,56.2,52.7,30.07,West,268,3.6,5.8,88,0.00,OVC,,0.00,WeatherDisplay:10.37,2013-04-17 07:05:00,
2013-04-17 03:10:00,56.2,52.7,30.07,SW,236,3.5,11.5,88,0.00,OVC,,0.00,WeatherDisplay:10.37,2013-04-17 07:10:00,
2013-04-17 03:15:00,56.2,52.4,30.08,NW,309,3.6,5.0,87,0.00,OVC,,0.00,WeatherDisplay:10.37,2013-04-17 07:15:00,
2013-04-17 03:20:00,56.3,52.2,30.08,WNW,301,1.7,3.5,86,0.00,OVC,,0.00,WeatherDisplay:10.37,2013-04-17 07:20:00,
2013-04-17 03:25:00,56.3,51.8,30.08,NW,319,3.4,3.5,85,0.00,OVC,,0.00,WeatherDisplay:10.37,2013-04-17 07:25:00,
2013-04-17 03:30:00,56.3,51.8,30.08,North,355,1.6,3.5,85,0.00,OVC,,0.00,WeatherDisplay:10.37,2013-04-17 07:30:00,
2013-04-17 03:35:00,56.2,50.4,30.08,NW,315,3.1,7.0,81,0.00,OVC,,0.00,WeatherDisplay:10.37,2013-04-17 07:35:00,
2013-04-17 03:40:00,56.4,48.2,30.07,NW,325,3.5,5.8,74,0.00,OVC,,0.00,WeatherDisplay:10.37,2013-04-17 07:40:00,
2013-04-17 03:45:00,56.4,47.1,30.07,West,281,3.6,5.8,71,0.00,OVC,,0.00,WeatherDisplay:10.37,2013-04-17 07:45:00,
2013-04-17 03:50:00,56.5,46.4,30.07,WNW,293,2.9,8.0,69,0.00,OVC,,0.00,WeatherDisplay:10.37,2013-04-17 07:50:00,
2013-04-17 03:55:00,56.5,45.7,30.08,WNW,289,3.6,11.5,67,0.00,OVC,,0.00,WeatherDisplay:10.37,2013-04-17 07:55:00,
2013-04-17 04:00:00,56.2,45.4,30.08,WNW,285,3.4,6.0,67,0.00,OVC,,0.00,WeatherDisplay:10.37,2013-04-17 08:00:00,
2013-04-17 04:05:00,55.9,44.7,30.08,WNW,286,3.6,5.0,66,0.00,OVC,,0.00,WeatherDisplay:10.37,2013-04-17 08:05:00,
2013-04-17 04:10:00,55.6,44.4,30.08,WNW,297,3.1,8.1,66,0.00,OVC,,0.00,WeatherDisplay:10.37,2013-04-17 08:10:00,
2013-04-17 04:15:00,55.4,44.2,30.09,NNW,337,2.2,3.5,66,0.00,OVC,,0.00,WeatherDisplay:10.37,2013-04-17 08:15:00,
2013-04-17 04:20:00,55.2,43.6,30.09,NW,319,2.4,6.9,65,0.00,OVC,,0.00,WeatherDisplay:10.37,2013-04-17 08:20:00,
2013-04-17 04:25:00,55.0,43.8,30.09,West,276,5.0,8.1,66,0.00,OVC,,0.00,WeatherDisplay:10.37,2013-04-17 08:25:00,
2013-04-17 04:30:00,54.8,43.7,30.09,WNW,287,5.4,10.4,66,0.00,OVC,,0.00,WeatherDisplay:10.37,2013-04-17 08:30:00,
2013-04-17 04:35:00,54.6,43.9,30.09,NW,314,1.8,3.5,67,0.00,OVC,,0.00,WeatherDisplay:10.37,2013-04-17 08:35:00,
2013-04-17 04:40:00,54.4,43.7,30.09,NW,309,3.1,9.2,67,0.00,OVC,,0.00,WeatherDisplay:10.37,2013-04-17 08:40:00,
2013-04-17 04:45:00,54.3,44.0,30.09,West,270,1.6,4.6,68,0.00,OVC,,0.00,WeatherDisplay:10.37,2013-04-17 08:45:00,
2013-04-17 04:50:00,54.2,43.9,30.09,WSW,254,3.6,5.8,68,0.00,OVC,,0.00,WeatherDisplay:10.37,2013-04-17 08:50:00,
2013-04-17 04:55:00,54.1,44.2,30.09,WSW,256,2.9,5.8,69,0.00,OVC,,0.00,WeatherDisplay:10.37,2013-04-17 08:55:00,
2013-04-17 05:00:00,54.0,44.1,30.10,WNW,297,2.1,3.5,69,0.00,OVC,,0.00,WeatherDisplay:10.37,2013-04-17 09:00:00,
2013-04-17 05:05:00,53.8,44.2,30.10,West,281,0.8,3.5,70,0.00,OVC,,0.00,WeatherDisplay:10.37,2013-04-17 09:05:00,
2013-04-17 05:10:00,53.7,44.1,30.10,West,279,0.9,3.5,70,0.00,OVC,,0.00,WeatherDisplay:10.37,2013-04-17 09:10:00,
2013-04-17 05:15:00,53.6,44.0,30.09,West,279,1.6,3.5,70,0.00,OVC,,0.00,WeatherDisplay:10.37,2013-04-17 09:15:00,
2013-04-17 05:20:00,53.5,44.0,30.09,NNW,336,2.2,3.5,70,0.00,OVC,,0.00,WeatherDisplay:10.37,2013-04-17 09:20:00,
2013-04-17 05:25:00,53.4,44.2,30.09,SW,236,4.5,8.1,71,0.00,OVC,,0.00,WeatherDisplay:10.37,2013-04-17 09:25:00,
2013-04-17 05:30:00,53.3,44.1,30.10,WNW,303,2.3,3.5,71,0.00,OVC,,0.00,WeatherDisplay:10.37,2013-04-17 09:30:00,
2013-04-17 05:35:00,53.3,44.1,30.10,North,360,2.6,5.8,71,0.00,OVC,,0.00,WeatherDisplay:10.37,2013-04-17 09:35:00,
2013-04-17 05:40:00,53.3,43.8,30.10,West,265,4.8,8.1,70,0.00,OVC,,0.00,WeatherDisplay:10.37,2013-04-17 09:40:00,
2013-04-17 05:45:00,53.3,43.8,30.10,NNW,345,0.7,3.5,70,0.00,OVC,,0.00,WeatherDisplay:10.37,2013-04-17 09:45:00,
2013-04-17 05:50:00,53.3,43.8,30.10,WSW,253,1.0,2.3,70,0.00,OVC,,0.00,WeatherDisplay:10.37,2013-04-17 09:50:00,
2013-04-17 05:55:00,53.2,42.9,30.10,West,264,2.9,6.0,68,0.00,OVC,,0.00,WeatherDisplay:10.37,2013-04-17 09:55:00,
2013-04-17 06:00:00,53.2,42.9,30.11,NNW,335,2.9,6.9,68,0.00,OVC,,0.00,WeatherDisplay:10.37,2013-04-17 10:00:00,
2013-04-17 06:05:00,53.2,42.1,30.11,NNE,25,1.9,3.5,66,0.00,OVC,,0.00,WeatherDisplay:10.37,2013-04-17 10:05:00,
2013-04-17 06:10:00,53.1,42.0,30.11,WNW,302,1.9,4.6,66,0.00,OVC,,0.00,WeatherDisplay:10.37,2013-04-17 10:10:00,
2013-04-17 06:15:00,53.1,41.6,30.11,West,268,4.5,6.0,65,0.00,OVC,,0.00,WeatherDisplay:10.37,2013-04-17 10:15:00,
2013-04-17 06:20:00,53.0,41.5,30.12,NNW,340,1.6,3.5,65,0.00,OVC,,0.00,WeatherDisplay:10.37,2013-04-17 10:20:00,
2013-04-17 06:25:00,52.8,41.4,30.12,WNW,294,1.0,3.5,65,0.00,OVC,,0.00,WeatherDisplay:10.37,2013-04-17 10:25:00,
2013-04-17 06:30:00,52.6,41.2,30.12,NNW,344,2.5,4.0,65,0.00,OVC,,0.00,WeatherDisplay:10.37,2013-04-17 10:30:00,
2013-04-17 06:35:00,52.4,41.4,30.12,WNW,300,1.0,3.5,66,0.00,OVC,,0.00,WeatherDisplay:10.37,2013-04-17 10:35:00,
2013-04-17 06:40:00,52.3,41.3,30.12,West,279,0.5,2.3,66,0.00,OVC,,0.00,WeatherDisplay:10.37,2013-04-17 10:40:00,
2013-04-17 06:45:00,52.2,41.2,30.13,NW,316,2.0,4.0,66,0.00,OVC,,0.00,WeatherDisplay:10.37,2013-04-17 10:45:00,
2013-04-17 06:50:00,52.2,41.2,30.12,WNW,298,2.7,6.9,66,0.00,OVC,,0.00,WeatherDisplay:10.37,2013-04-17 10:50:00,
2013-04-17 06:55:00,52.1,41.1,30.13,SW,233,1.1,3.5,66,0.00,OVC,,0.00,WeatherDisplay:10.37,2013-04-17 10:55:00,
2013-04-17 07:00:00,52.0,41.0,30.13,NE,40,2.4,3.5,66,0.00,OVC,,0.00,WeatherDisplay:10.37,2013-04-17 11:00:00,
2013-04-17 07:05:00,52.1,41.1,30.14,NW,316,0.5,2.3,66,0.00,CLR,,0.00,WeatherDisplay:10.37,2013-04-17 11:05:00,
2013-04-17 07:10:00,52.1,40.7,30.14,West,263,0.7,2.3,65,0.00,CLR,,0.00,WeatherDisplay:10.37,2013-04-17 11:10:00,
2013-04-17 07:15:00,52.2,41.2,30.14,WSW,248,0.2,2.0,66,0.00,CLR,,0.00,WeatherDisplay:10.37,2013-04-17 11:15:00,
2013-04-17 07:20:00,52.2,41.2,30.14,WSW,237,1.2,2.3,66,0.00,CLR,,0.00,WeatherDisplay:10.37,2013-04-17 11:20:00,
2013-04-17 07:25:00,52.3,40.9,30.14,NE,41,3.4,4.0,65,0.00,CLR,,0.00,WeatherDisplay:10.37,2013-04-17 11:25:00,
2013-04-17 07:30:00,52.4,41.0,30.15,West,278,1.2,3.5,65,0.00,CLR,,0.00,WeatherDisplay:10.37,2013-04-17 11:30:00,
2013-04-17 07:35:00,52.4,40.6,30.15,NNW,336,3.1,8.1,64,0.00,CLR,,0.00,WeatherDisplay:10.37,2013-04-17 11:35:00,
2013-04-17 07:40:00,52.6,40.8,30.15,NNW,327,1.3,3.5,64,0.00,CLR,,0.00,WeatherDisplay:10.37,2013-04-17 11:40:00,
2013-04-17 07:45:00,52.7,40.5,30.15,North,5,3.1,4.0,63,0.00,CLR,,0.00,WeatherDisplay:10.37,2013-04-17 11:45:00,
2013-04-17 07:50:00,52.8,40.5,30.15,North,11,2.1,4.6,63,0.00,CLR,,0.00,WeatherDisplay:10.37,2013-04-17 11:50:00,
2013-04-17 07:55:00,53.1,40.4,30.16,North,355,2.3,9.2,62,0.00,CLR,,0.00,WeatherDisplay:10.37,2013-04-17 11:55:00,
2013-04-17 08:00:00,53.1,40.4,30.16,NW,317,3.1,4.0,62,0.00,CLR,,0.00,WeatherDisplay:10.37,2013-04-17 12:00:00,
2013-04-17 08:05:00,53.3,40.6,30.16,NNE,24,2.7,5.8,62,0.00,FEW,,0.00,WeatherDisplay:10.37,2013-04-17 12:05:00,
2013-04-17 08:10:00,53.3,39.8,30.16,NNE,23,4.5,6.9,60,0.00,FEW,,0.00,WeatherDisplay:10.37,2013-04-17 12:10:00,
2013-04-17 08:15:00,53.3,40.2,30.17,NNE,12,2.9,3.5,61,0.00,FEW,,0.00,WeatherDisplay:10.37,2013-04-17 12:15:00,
2013-04-17 08:20:00,53.6,40.0,30.17,NNE,25,1.6,3.5,60,0.00,FEW,,0.00,WeatherDisplay:10.37,2013-04-17 12:20:00,
2013-04-17 08:25:00,53.6,40.0,30.17,WNW,297,3.4,5.8,60,0.00,FEW,,0.00,WeatherDisplay:10.37,2013-04-17 12:25:00,
2013-04-17 08:30:00,53.9,39.9,30.17,West,277,3.3,6.9,59,0.00,FEW,,0.00,WeatherDisplay:10.37,2013-04-17 12:30:00,
2013-04-17 08:35:00,53.7,38.8,30.17,North,5,5.6,9.2,57,0.00,FEW,,0.00,WeatherDisplay:10.37,2013-04-17 12:35:00,
2013-04-17 08:40:00,53.8,38.0,30.17,NW,315,3.2,6.9,55,0.00,FEW,,0.00,WeatherDisplay:10.37,2013-04-17 12:40:00,
2013-04-17 08:45:00,54.0,38.6,30.17,NNW,336,1.0,3.5,56,0.00,FEW,,0.00,WeatherDisplay:10.37,2013-04-17 12:45:00,
2013-04-17 08:50:00,54.1,38.3,30.17,North,360,1.8,6.9,55,0.00,FEW,,0.00,WeatherDisplay:10.37,2013-04-17 12:50:00,
2013-04-17 08:55:00,54.1,37.8,30.17,ENE,64,3.2,6.9,54,0.00,FEW,,0.00,WeatherDisplay:10.37,2013-04-17 12:55:00,
2013-04-17 09:00:00,54.1,37.8,30.17,NNW,337,4.0,8.0,54,0.00,FEW,,0.00,WeatherDisplay:10.37,2013-04-17 13:00:00,
2013-04-17 09:05:00,54.0,37.2,30.17,NNE,21,3.8,5.8,53,0.00,FEW,,0.00,WeatherDisplay:10.37,2013-04-17 13:05:00,
2013-04-17 09:10:00,54.2,37.9,30.18,NNE,15,2.3,3.5,54,0.00,FEW,,0.00,WeatherDisplay:10.37,2013-04-17 13:10:00,
2013-04-17 09:15:00,54.4,37.1,30.18,ENE,59,3.1,4.6,52,0.00,FEW,,0.00,WeatherDisplay:10.37,2013-04-17 13:15:00,
2013-04-17 09:20:00,54.6,37.3,30.18,West,263,4.7,6.9,52,0.00,FEW,,0.00,WeatherDisplay:10.37,2013-04-17 13:20:00,
2013-04-17 09:25:00,54.6,36.8,30.18,West,275,1.9,6.9,51,0.00,FEW,,0.00,WeatherDisplay:10.37,2013-04-17 13:25:00,
2013-04-17 09:30:00,54.5,36.7,30.18,WNW,282,3.3,3.5,51,0.00,FEW,,0.00,WeatherDisplay:10.37,2013-04-17 13:30:00,
2013-04-17 09:35:00,54.6,36.3,30.18,North,360,4.9,6.9,50,0.00,FEW,,0.00,WeatherDisplay:10.37,2013-04-17 13:35:00,
2013-04-17 09:40:00,54.8,36.0,30.18,NE,38,3.6,11.5,49,0.00,FEW,,0.00,WeatherDisplay:10.37,2013-04-17 13:40:00,
2013-04-17 09:45:00,55.0,36.2,30.18,NNW,341,3.3,3.5,49,0.00,FEW,,0.00,WeatherDisplay:10.37,2013-04-17 13:45:00,
2013-04-17 09:50:00,55.2,35.8,30.18,NNW,329,5.4,7.0,48,0.00,FEW,,0.00,WeatherDisplay:10.37,2013-04-17 13:50:00,
2013-04-17 09:55:00,55.2,35.8,30.18,NNE,13,3.3,4.6,48,0.00,FEW,,0.00,WeatherDisplay:10.37,2013-04-17 13:55:00,
2013-04-17 10:00:00,55.3,35.9,30.18,NNW,345,1.4,5.0,48,0.00,FEW,,0.00,WeatherDisplay:10.37,2013-04-17 14:00:00,
2013-04-17 10:05:00,55.8,36.4,30.18,NE,36,2.8,4.0,48,0.00,FEW,,0.00,WeatherDisplay:10.37,2013-04-17 14:05:00,
2013-04-17 10:10:00,56.0,35.5,30.18,NW,315,2.4,9.2,46,0.00,FEW,,0.00,WeatherDisplay:10.37,2013-04-17 14:10:00,
2013-04-17 10:15:00,55.8,35.9,30.18,North,5,2.1,3.5,47,0.00,FEW,,0.00,WeatherDisplay:10.37,2013-04-17 14:15:00,
2013-04-17 10:20:00,56.1,34.5,30.18,SE,131,1.9,4.0,44,0.00,FEW,,0.00,WeatherDisplay:10.37,2013-04-17 14:20:00,
2013-04-17 10:25:00,56.2,34.6,30.18,NE,35,3.7,5.8,44,0.00,FEW,,0.00,WeatherDisplay:10.37,2013-04-17 14:25:00,
2013-04-17 10:30:00,55.8,34.2,30.18,East,94,2.2,5.0,44,0.00,FEW,,0.00,WeatherDisplay:10.37,2013-04-17 14:30:00,
2013-04-17 10:35:00,55.9,34.3,30.18,WSW,247,2.6,8.1,44,0.00,FEW,,0.00,WeatherDisplay:10.37,2013-04-17 14:35:00,
2013-04-17 10:40:00,56.6,34.3,30.18,North,355,2.2,6.0,43,0.00,FEW,,0.00,WeatherDisplay:10.37,2013-04-17 14:40:00,
2013-04-17 10:45:00,56.6,33.2,30.18,NNW,337,1.8,3.5,41,0.00,FEW,,0.00,WeatherDisplay:10.37,2013-04-17 14:45:00,
2013-04-17 10:50:00,56.8,33.3,30.19,WSW,252,5.6,8.1,41,0.00,FEW,,0.00,WeatherDisplay:10.37,2013-04-17 14:50:00,
2013-04-17 10:55:00,56.8,32.7,30.18,West,271,2.8,6.9,40,0.00,FEW,,0.00,WeatherDisplay:10.37,2013-04-17 14:55:00,
2013-04-17 11:00:00,57.0,33.5,30.18,NNE,29,2.3,4.0,41,0.00,FEW,,0.00,WeatherDisplay:10.37,2013-04-17 15:00:00,
2013-04-17 11:05:00,57.5,33.3,30.19,SW,225,1.9,3.5,40,0.00,FEW,,0.00,WeatherDisplay:10.37,2013-04-17 15:05:00,
2013-04-17 11:10:00,57.7,32.2,30.18,SW,233,3.4,8.1,38,0.00,FEW,,0.00,WeatherDisplay:10.37,2013-04-17 15:10:00,
2013-04-17 11:15:00,57.8,33.0,30.18,NNE,29,1.5,9.2,39,0.00,FEW,,0.00,WeatherDisplay:10.37,2013-04-17 15:15:00,
2013-04-17 11:20:00,58.1,32.6,30.18,NE,55,4.1,7.0,38,0.00,FEW,,0.00,WeatherDisplay:10.37,2013-04-17 15:20:00,
2013-04-17 11:25:00,58.4,32.2,30.18,SW,230,3.2,6.0,37,0.00,FEW,,0.00,WeatherDisplay:10.37,2013-04-17 15:25:00,
2013-04-17 11:30:00,58.7,31.8,30.19,NNE,22,2.8,3.5,36,0.00,FEW,,0.00,WeatherDisplay:10.37,2013-04-17 15:30:00,
2013-04-17 11:36:00,58.5,31.6,30.19,NNE,30,2.5,5.8,36,0.00,FEW,,0.00,WeatherDisplay:10.37,2013-04-17 15:36:00,
2013-04-17 11:41:00,58.9,32.0,30.18,WSW,253,4.4,8.1,36,0.00,FEW,,0.00,WeatherDisplay:10.37,2013-04-17 15:41:00,
2013-04-17 11:46:00,59.1,32.1,30.18,West,269,1.9,9.0,36,0.00,FEW,,0.00,WeatherDisplay:10.37,2013-04-17 15:46:00,
2013-04-17 11:51:00,59.3,30.9,30.18,SSE,160,3.4,9.2,34,0.00,FEW,,0.00,WeatherDisplay:10.37,2013-04-17 15:51:00,
2013-04-17 11:56:00,59.2,31.5,30.18,North,355,6.5,11.5,35,0.00,FEW,,0.00,WeatherDisplay:10.37,2013-04-17 15:56:00,
2013-04-17 12:01:00,59.3,30.9,30.18,WSW,257,5.7,8.0,34,0.00,FEW,,0.00,WeatherDisplay:10.37,2013-04-17 16:01:00,
2013-04-17 12:06:00,59.2,31.5,30.18,WSW,248,2.3,11.5,35,0.00,CLR,,0.00,WeatherDisplay:10.37,2013-04-17 16:06:00,
2013-04-17 12:11:00,60.2,32.4,30.18,North,5,1.5,3.5,35,0.00,CLR,,0.00,WeatherDisplay:10.37,2013-04-17 16:11:00,
2013-04-17 12:16:00,60.5,31.2,30.18,North,5,2.4,3.5,33,0.00,CLR,,0.00,WeatherDisplay:10.37,2013-04-17 16:16:00,
2013-04-17 12:21:00,60.3,31.0,30.18,NW,323,4.3,9.2,33,0.00,CLR,,0.00,WeatherDisplay:10.37,2013-04-17 16:21:00,
2013-04-17 12:26:00,60.9,31.6,30.17,WNW,288,4.5,6.9,33,0.00,CLR,,0.00,WeatherDisplay:10.37,2013-04-17 16:26:00,
2013-04-17 12:31:00,61.3,31.9,30.17,North,360,2.9,5.0,33,0.00,CLR,,0.00,WeatherDisplay:10.37,2013-04-17 16:31:00,
2013-04-17 12:36:00,61.1,31.8,30.17,North,9,2.2,3.5,33,0.00,CLR,,0.00,WeatherDisplay:10.37,2013-04-17 16:36:00,
2013-04-17 12:41:00,61.3,31.2,30.17,North,5,5.0,10.4,32,0.00,CLR,,0.00,WeatherDisplay:10.37,2013-04-17 16:41:00,
2013-04-17 12:46:00,61.5,31.3,30.17,NNE,21,3.5,5.8,32,0.00,CLR,,0.00,WeatherDisplay:10.37,2013-04-17 16:46:00,
2013-04-17 12:51:00,61.2,30.3,30.17,NW,306,3.0,4.6,31,0.00,CLR,,0.00,WeatherDisplay:10.37,2013-04-17 16:51:00,
2013-04-17 12:56:00,61.0,30.9,30.17,North,5,1.1,4.6,32,0.00,CLR,,0.00,WeatherDisplay:10.37,2013-04-17 16:56:00,
2013-04-17 13:01:00,61.8,30.8,30.17,NW,314,2.4,2.4,31,0.00,CLR,,0.00,WeatherDisplay:10.37,2013-04-17 17:01:00,
2013-04-17 13:06:00,62.5,31.4,30.17,NNE,27,1.8,5.8,31,0.00,CLR,,0.00,WeatherDisplay:10.37,2013-04-17 17:06:00,
2013-04-17 13:11:00,62.7,30.8,30.17,ENE,65,1.4,3.5,30,0.00,CLR,,0.00,WeatherDisplay:10.37,2013-04-17 17:11:00,
2013-04-17 13:16:00,62.7,30.0,30.17,NE,51,3.2,4.6,29,0.00,CLR,,0.00,WeatherDisplay:10.37,2013-04-17 17:16:00,
2013-04-17 13:21:00,62.5,30.6,30.16,West,275,1.6,3.5,30,0.00,CLR,,0.00,WeatherDisplay:10.37,2013-04-17 17:21:00,
2013-04-17 13:26:00,63.1,30.3,30.16,NNW,331,2.8,3.5,29,0.00,CLR,,0.00,WeatherDisplay:10.37,2013-04-17 17:26:00,
2013-04-17 13:31:00,63.5,30.6,30.16,ENE,73,2.2,3.0,29,0.00,CLR,,0.00,WeatherDisplay:10.37,2013-04-17 17:31:00,
2013-04-17 13:36:00,63.4,29.7,30.16,East,89,2.5,3.5,28,0.00,CLR,,0.00,WeatherDisplay:10.37,2013-04-17 17:36:00,
2013-04-17 13:41:00,63.2,30.4,30.16,SSW,211,3.1,4.0,29,0.00,CLR,,0.00,WeatherDisplay:10.37,2013-04-17 17:41:00,
2013-04-17 13:46:00,63.7,30.8,30.17,NW,313,3.4,3.5,29,0.00,CLR,,0.00,WeatherDisplay:10.37,2013-04-17 17:46:00,
2013-04-17 13:51:00,63.7,30.0,30.17,SE,131,0.8,4.6,28,0.00,CLR,,0.00,WeatherDisplay:10.37,2013-04-17 17:51:00,
2013-04-17 13:56:00,63.8,30.0,30.17,SSW,207,2.8,3.5,28,0.00,CLR,,0.00,WeatherDisplay:10.37,2013-04-17 17:56:00,
2013-04-17 14:01:00,64.1,30.3,30.16,East,94,2.1,4.6,28,0.00,CLR,,0.00,WeatherDisplay:10.37,2013-04-17 18:01:00,
2013-04-17 14:06:00,63.9,30.1,30.16,NNW,344,2.6,9.2,28,0.00,CLR,,0.00,WeatherDisplay:10.37,2013-04-17 18:06:00,
2013-04-17 14:11:00,63.9,30.1,30.16,NE,36,2.3,3.5,28,0.00,CLR,,0.00,WeatherDisplay:10.37,2013-04-17 18:11:00,
2013-04-17 14:16:00,63.9,29.2,30.16,SSE,168,3.5,10.4,27,0.00,CLR,,0.00,WeatherDisplay:10.37,2013-04-17 18:16:00,
2013-04-17 14:21:00,64.3,31.3,30.16,NNW,347,2.0,3.5,29,0.00,CLR,,0.00,WeatherDisplay:10.37,2013-04-17 18:21:00,
2013-04-17 14:26:00,64.3,29.6,30.17,North,9,2.7,8.1,27,0.00,CLR,,0.00,WeatherDisplay:10.37,2013-04-17 18:26:00,
2013-04-17 14:31:00,64.4,30.6,30.16,WSW,250,2.3,5.8,28,0.00,CLR,,0.00,WeatherDisplay:10.37,2013-04-17 18:31:00,
2013-04-17 14:36:00,65.1,30.3,30.16,East,97,2.2,3.5,27,0.00,CLR,,0.00,WeatherDisplay:10.37,2013-04-17 18:36:00,
2013-04-17 14:41:00,64.7,29.9,30.16,NNW,336,3.8,6.0,27,0.00,CLR,,0.00,WeatherDisplay:10.37,2013-04-17 18:41:00,
2013-04-17 14:46:00,64.3,29.6,30.16,NNW,348,1.6,9.2,27,0.00,CLR,,0.00,WeatherDisplay:10.37,2013-04-17 18:46:00,
2013-04-17 14:51:00,64.6,29.8,30.16,West,271,2.8,5.0,27,0.00,CLR,,0.00,WeatherDisplay:10.37,2013-04-17 18:51:00,
2013-04-17 14:56:00,64.4,30.6,30.17,NNE,30,2.1,5.8,28,0.00,CLR,,0.00,WeatherDisplay:10.37,2013-04-17 18:56:00,
2013-04-17 15:01:00,64.5,29.7,30.17,North,355,2.0,4.6,27,0.00,CLR,,0.00,WeatherDisplay:10.37,2013-04-17 19:01:00,
2013-04-17 15:06:00,64.8,30.0,30.17,East,82,1.4,3.5,27,0.00,CLR,,0.00,WeatherDisplay:10.37,2013-04-17 19:06:00,
2013-04-17 15:11:00,65.2,29.4,30.17,North,355,2.9,3.5,26,0.00,CLR,,0.00,WeatherDisplay:10.37,2013-04-17 19:11:00,
2013-04-17 15:16:00,65.4,29.6,30.17,WNW,302,3.2,9.2,26,0.00,CLR,,0.00,WeatherDisplay:10.37,2013-04-17 19:16:00,
2013-04-17 15:21:00,65.6,29.8,30.17,East,84,3.0,3.5,26,0.00,CLR,,0.00,WeatherDisplay:10.37,2013-04-17 19:21:00,
2013-04-17 15:26:00,66.1,29.2,30.17,West,269,3.2,5.8,25,0.00,CLR,,0.00,WeatherDisplay:10.37,2013-04-17 19:26:00,
2013-04-17 15:31:00,65.9,29.1,30.17,NE,49,3.0,5.8,25,0.00,CLR,,0.00,WeatherDisplay:10.37,2013-04-17 19:31:00,
2013-04-17 15:36:00,66.2,30.3,30.17,WSW,256,4.1,8.0,26,0.00,CLR,,0.00,WeatherDisplay:10.37,2013-04-17 19:36:00,
2013-04-17 15:41:00,66.4,30.4,30.17,NE,38,0.8,3.5,26,0.00,CLR,,0.00,WeatherDisplay:10.37,2013-04-17 19:41:00,
2013-04-17 15:46:00,66.6,28.6,30.17,NNW,331,4.1,8.1,24,0.00,CLR,,0.00,WeatherDisplay:10.37,2013-04-17 19:46:00,
2013-04-17 15:51:00,66.1,30.2,30.17,NE,46,2.0,3.5,26,0.00,CLR,,0.00,WeatherDisplay:10.37,2013-04-17 19:51:00,
2013-04-17 15:56:00,65.7,29.8,30.17,NW,326,1.7,3.5,26,0.00,CLR,,0.00,WeatherDisplay:10.37,2013-04-17 19:56:00,
2013-04-17 16:02:00,65.9,29.1,30.17,NE,40,0.0,2.3,25,0.00,CLR,,0.00,WeatherDisplay:10.37,2013-04-17 20:02:00,
2013-04-17 16:11:00,65.8,29.0,30.18,NW,309,5.0,5.0,25,0.00,CLR,,0.00,WeatherDisplay:10.37,2013-04-17 20:11:00,
2013-04-17 16:16:00,65.8,29.0,30.17,WNW,302,2.3,6.0,25,0.00,CLR,,0.00,WeatherDisplay:10.37,2013-04-17 20:16:00,
2013-04-17 16:21:00,65.5,28.7,30.18,ENE,78,1.9,3.5,25,0.00,CLR,,0.00,WeatherDisplay:10.37,2013-04-17 20:21:00,
2013-04-17 16:26:00,65.7,28.9,30.18,NNE,26,2.5,6.0,25,0.00,CLR,,0.00,WeatherDisplay:10.37,2013-04-17 20:26:00,
2013-04-17 16:31:00,65.3,28.5,30.18,NE,50,4.2,8.1,25,0.00,CLR,,0.00,WeatherDisplay:10.37,2013-04-17 20:31:00,
2013-04-17 16:36:00,65.1,29.3,30.18,NNW,340,1.8,6.9,26,0.00,CLR,,0.00,WeatherDisplay:10.37,2013-04-17 20:36:00,
2013-04-17 16:41:00,65.1,29.3,30.18,WNW,282,2.0,5.0,26,0.00,CLR,,0.00,WeatherDisplay:10.37,2013-04-17 20:41:00,
2013-04-17 16:46:00,65.1,29.3,30.18,North,5,1.9,4.6,26,0.00,CLR,,0.00,WeatherDisplay:10.37,2013-04-17 20:46:00,
2013-04-17 16:51:00,65.6,28.8,30.18,WNW,288,3.3,4.6,25,0.00,CLR,,0.00,WeatherDisplay:10.37,2013-04-17 20:51:00,
2013-04-17 16:56:00,65.9,29.1,30.18,NW,323,2.4,6.0,25,0.00,CLR,,0.00,WeatherDisplay:10.37,2013-04-17 20:56:00,
2013-04-17 17:01:00,66.1,29.2,30.19,WNW,291,3.6,8.0,25,0.00,CLR,,0.00,WeatherDisplay:10.37,2013-04-17 21:01:00,
2013-04-17 17:07:00,65.8,29.0,30.19,NNW,330,2.4,5.0,25,0.00,CLR,,0.00,WeatherDisplay:10.37,2013-04-17 21:07:00,
2013-04-17 17:12:00,66.0,29.1,30.19,WNW,299,1.6,3.5,25,0.00,CLR,,0.00,WeatherDisplay:10.37,2013-04-17 21:12:00,
2013-04-17 17:17:00,66.0,29.1,30.20,ENE,75,2.7,4.0,25,0.00,CLR,,0.00,WeatherDisplay:10.37,2013-04-17 21:17:00,
2013-04-17 17:22:00,65.5,28.7,30.20,NNW,338,1.7,4.6,25,0.00,CLR,,0.00,WeatherDisplay:10.37,2013-04-17 21:22:00,
2013-04-17 17:27:00,65.6,29.8,30.20,WSW,244,2.2,5.0,26,0.00,CLR,,0.00,WeatherDisplay:10.37,2013-04-17 21:27:00,
2013-04-17 17:32:00,65.5,28.7,30.20,NNE,29,3.9,9.0,25,0.00,CLR,,0.00,WeatherDisplay:10.37,2013-04-17 21:32:00,
2013-04-17 17:37:00,65.2,29.4,30.20,NNE,28,1.7,4.6,26,0.00,CLR,,0.00,WeatherDisplay:10.37,2013-04-17 21:37:00,
2013-04-17 17:42:00,65.4,28.6,30.20,North,5,1.8,3.5,25,0.00,CLR,,0.00,WeatherDisplay:10.37,2013-04-17 21:42:00,
2013-04-17 17:47:00,65.2,28.5,30.21,NNW,331,2.7,4.6,25,0.00,CLR,,0.00,WeatherDisplay:10.37,2013-04-17 21:47:00,
2013-04-17 17:52:00,64.7,29.0,30.21,NNE,18,2.8,5.8,26,0.00,CLR,,0.00,WeatherDisplay:10.37,2013-04-17 21:52:00,
2013-04-17 17:57:00,64.5,27.9,30.21,NW,325,2.2,5.0,25,0.00,CLR,,0.00,WeatherDisplay:10.37,2013-04-17 21:57:00,
2013-04-17 18:02:00,64.5,27.9,30.22,NNW,334,2.5,3.5,25,0.00,SCT,,0.00,WeatherDisplay:10.37,2013-04-17 22:02:00,
2013-04-17 18:07:00,64.2,27.6,30.22,NNE,22,2.8,4.6,25,0.00,SCT,,0.00,WeatherDisplay:10.37,2013-04-17 22:07:00,
2013-04-17 18:12:00,64.0,28.4,30.22,NW,319,1.9,8.1,26,0.00,SCT,,0.00,WeatherDisplay:10.37,2013-04-17 22:12:00,
2013-04-17 18:17:00,63.9,27.4,30.23,NNE,19,2.3,3.5,25,0.00,SCT,,0.00,WeatherDisplay:10.37,2013-04-17 22:17:00,
2013-04-17 18:22:00,63.7,27.2,30.23,North,5,2.3,4.6,25,0.00,SCT,,0.00,WeatherDisplay:10.37,2013-04-17 22:22:00,
2013-04-17 18:27:00,63.5,28.0,30.23,NNE,31,1.9,5.8,26,0.00,SCT,,0.00,WeatherDisplay:10.37,2013-04-17 22:27:00,
2013-04-17 18:32:00,63.2,28.6,30.23,NNE,15,2.6,4.6,27,0.00,SCT,,0.00,WeatherDisplay:10.37,2013-04-17 22:32:00,
2013-04-17 18:37:00,62.8,27.4,30.23,NNW,346,2.2,4.6,26,0.00,SCT,,0.00,WeatherDisplay:10.37,2013-04-17 22:37:00,
2013-04-17 18:42:00,62.5,28.0,30.23,NE,38,0.9,3.5,27,0.00,SCT,,0.00,WeatherDisplay:10.37,2013-04-17 22:42:00,
2013-04-17 18:47:00,62.2,28.7,30.24,NNE,13,2.6,3.5,28,0.00,SCT,,0.00,WeatherDisplay:10.37,2013-04-17 22:47:00,
2013-04-17 18:52:00,61.7,28.2,30.24,NE,40,2.9,3.5,28,0.00,SCT,,0.00,WeatherDisplay:10.37,2013-04-17 22:52:00,
2013-04-17 18:57:00,61.5,28.9,30.24,North,349,0.9,2.3,29,0.00,SCT,,0.00,WeatherDisplay:10.37,2013-04-17 22:57:00,
2013-04-17 19:02:00,61.3,29.6,30.24,West,269,1.6,3.5,30,0.00,CLR,,0.00,WeatherDisplay:10.37,2013-04-17 23:02:00,
2013-04-17 19:07:00,61.2,29.5,30.25,West,269,0.2,2.3,30,0.00,CLR,,0.00,WeatherDisplay:10.37,2013-04-17 23:07:00,
2013-04-17 19:12:00,60.9,28.4,30.25,NW,325,1.3,2.3,29,0.00,CLR,,0.00,WeatherDisplay:10.37,2013-04-17 23:12:00,
2013-04-17 19:17:00,60.6,28.1,30.25,NNW,330,1.4,3.5,29,0.00,CLR,,0.00,WeatherDisplay:10.37,2013-04-17 23:17:00,
2013-04-17 19:22:00,60.3,27.9,30.25,North,360,0.3,1.2,29,0.00,CLR,,0.00,WeatherDisplay:10.37,2013-04-17 23:22:00,
2013-04-17 19:27:00,60.0,29.2,30.25,North,355,0.5,1.2,31,0.00,CLR,,0.00,WeatherDisplay:10.37,2013-04-17 23:27:00,
2013-04-17 19:32:00,59.7,28.2,30.25,NNW,329,2.2,3.5,30,0.00,CLR,,0.00,WeatherDisplay:10.37,2013-04-17 23:32:00,
2013-04-17 19:37:00,59.5,29.6,30.26,NNW,329,0.1,1.2,32,0.00,CLR,,0.00,WeatherDisplay:10.37,2013-04-17 23:37:00,
2013-04-17 19:42:00,59.3,28.6,30.26,NNW,329,0.1,1.2,31,0.00,CLR,,0.00,WeatherDisplay:10.37,2013-04-17 23:42:00,
2013-04-17 19:47:00,59.1,29.2,30.26,NNW,327,0.1,1.2,32,0.00,CLR,,0.00,WeatherDisplay:10.37,2013-04-17 23:47:00,
2013-04-17 19:52:00,58.8,30.5,30.26,NNW,327,0.2,1.2,34,0.00,CLR,,0.00,WeatherDisplay:10.37,2013-04-17 23:52:00,
2013-04-17 19:57:00,58.5,30.2,30.26,NW,324,0.4,2.3,34,0.00,CLR,,0.00,WeatherDisplay:10.37,2013-04-17 23:57:00,
2013-04-17 20:02:00,58.2,29.2,30.27,North,349,1.6,2.3,33,0.00,CLR,,0.00,WeatherDisplay:10.37,2013-04-18 00:02:00,
2013-04-17 20:07:00,57.9,30.4,30.27,North,349,0.0,1.2,35,0.00,CLR,,0.00,WeatherDisplay:10.37,2013-04-18 00:07:00,
2013-04-17 20:12:00,57.6,30.1,30.28,North,349,0.0,0.0,35,0.00,CLR,,0.00,WeatherDisplay:10.37,2013-04-18 00:12:00,
2013-04-17 20:17:00,57.2,30.5,30.28,North,349,0.0,0.0,36,0.00,SCT,,0.00,WeatherDisplay:10.37,2013-04-18 00:17:00,
2013-04-17 20:22:00,56.8,30.8,30.28,NW,321,0.4,1.2,37,0.00,SCT,,0.00,WeatherDisplay:10.37,2013-04-18 00:22:00,
2013-04-17 20:27:00,56.3,30.3,30.28,NW,321,0.0,1.2,37,0.00,SCT,,0.00,WeatherDisplay:10.37,2013-04-18 00:27:00,
2013-04-17 20:32:00,55.9,30.6,30.29,North,11,0.9,3.5,38,0.00,SCT,,0.00,WeatherDisplay:10.37,2013-04-18 00:32:00,
2013-04-17 20:37:00,55.6,32.8,30.29,NNE,24,0.3,1.2,42,0.00,SCT,,0.00,WeatherDisplay:10.37,2013-04-18 00:37:00,
2013-04-17 20:42:00,55.4,33.3,30.29,NNE,24,0.8,2.3,43,0.00,SCT,,0.00,WeatherDisplay:10.37,2013-04-18 00:42:00,
2013-04-17 20:47:00,55.0,34.0,30.29,NNE,24,0.3,1.2,45,0.00,SCT,,0.00,WeatherDisplay:10.37,2013-04-18 00:47:00,
2013-04-17 20:52:00,54.7,33.8,30.29,NNE,24,0.3,1.2,45,0.00,SCT,,0.00,WeatherDisplay:10.37,2013-04-18 00:52:00,
2013-04-17 20:57:00,54.5,34.7,30.30,NNE,24,0.0,1.2,47,0.00,SCT,,0.00,WeatherDisplay:10.37,2013-04-18 00:57:00,
2013-04-17 21:02:00,54.3,32.8,30.30,NNE,24,0.0,0.0,44,0.00,SCT,,0.00,WeatherDisplay:10.37,2013-04-18 01:02:00,
2013-04-17 21:07:00,54.2,32.7,30.30,North,349,1.5,4.6,44,0.00,SCT,,0.00,WeatherDisplay:10.37,2013-04-18 01:07:00,
2013-04-17 21:12:00,54.3,32.3,30.30,North,360,0.3,2.3,43,0.00,SCT,,0.00,WeatherDisplay:10.37,2013-04-18 01:12:00,
2013-04-17 21:17:00,54.3,31.1,30.30,South,187,0.2,1.2,41,0.00,SCT,,0.00,WeatherDisplay:10.37,2013-04-18 01:17:00,
2013-04-17 21:22:00,54.2,31.0,30.30,SE,136,0.3,2.3,41,0.00,SCT,,0.00,WeatherDisplay:10.37,2013-04-18 01:22:00,
2013-04-17 21:27:00,54.1,29.7,30.30,SE,136,0.3,2.0,39,0.00,SCT,,0.00,WeatherDisplay:10.37,2013-04-18 01:27:00,
2013-04-17 21:32:00,54.2,29.8,30.30,East,90,0.5,1.2,39,0.00,SCT,,0.00,WeatherDisplay:10.37,2013-04-18 01:32:00,
2013-04-17 21:37:00,54.2,29.8,30.30,NE,54,0.2,2.3,39,0.00,SCT,,0.00,WeatherDisplay:10.37,2013-04-18 01:37:00,
2013-04-17 21:42:00,54.1,29.0,30.30,NE,55,0.3,1.2,38,0.00,SCT,,0.00,WeatherDisplay:10.37,2013-04-18 01:42:00,
2013-04-17 21:47:00,54.0,30.2,30.31,South,185,0.5,3.5,40,0.00,SCT,,0.00,WeatherDisplay:10.37,2013-04-18 01:47:00,
2013-04-17 21:52:00,53.9,29.5,30.31,South,185,0.4,1.2,39,0.00,SCT,,0.00,WeatherDisplay:10.37,2013-04-18 01:52:00,
2013-04-17 21:57:00,53.7,29.3,30.31,South,186,0.2,1.2,39,0.00,SCT,,0.00,WeatherDisplay:10.37,2013-04-18 01:57:00,
2013-04-17 22:02:00,53.6,29.8,30.31,South,186,0.0,0.0,40,0.00,SCT,,0.00,WeatherDisplay:10.37,2013-04-18 02:02:00,
2013-04-17 22:07:00,53.4,29.7,30.31,South,186,0.0,0.0,40,0.00,SCT,,0.00,WeatherDisplay:10.37,2013-04-18 02:07:00,
2013-04-17 22:12:00,53.1,29.4,30.31,South,186,0.0,0.0,40,0.00,SCT,,0.00,WeatherDisplay:10.37,2013-04-18 02:12:00,
2013-04-17 22:17:00,52.8,30.3,30.31,South,186,0.0,0.0,42,0.00,SCT,,0.00,WeatherDisplay:10.37,2013-04-18 02:17:00,
2013-04-17 22:22:00,52.4,30.0,30.32,South,186,0.0,0.0,42,0.00,SCT,,0.00,WeatherDisplay:10.37,2013-04-18 02:22:00,
2013-04-17 22:27:00,52.0,31.8,30.32,South,186,0.0,0.0,46,0.00,SCT,,0.00,WeatherDisplay:10.37,2013-04-18 02:27:00,
2013-04-17 22:32:00,51.7,29.3,30.31,South,186,0.0,0.0,42,0.00,SCT,,0.00,WeatherDisplay:10.37,2013-04-18 02:32:00,
2013-04-17 22:37:00,51.3,30.1,30.31,South,186,0.0,0.0,44,0.00,SCT,,0.00,WeatherDisplay:10.37,2013-04-18 02:37:00,
2013-04-17 22:42:00,51.0,30.4,30.31,South,186,0.0,0.0,45,0.00,SCT,,0.00,WeatherDisplay:10.37,2013-04-18 02:42:00,
2013-04-17 22:47:00,50.7,30.7,30.32,South,186,0.0,0.0,46,0.00,SCT,,0.00,WeatherDisplay:10.37,2013-04-18 02:47:00,
2013-04-17 22:52:00,50.4,33.4,30.32,South,186,0.0,0.0,52,0.00,SCT,,0.00,WeatherDisplay:10.37,2013-04-18 02:52:00,
2013-04-17 22:57:00,49.9,31.5,30.32,South,187,0.4,2.3,49,0.00,SCT,,0.00,WeatherDisplay:10.37,2013-04-18 02:57:00,
2013-04-17 23:02:00,49.6,32.2,30.33,South,187,0.1,1.2,51,0.00,CLR,,0.00,WeatherDisplay:10.37,2013-04-18 03:02:00,
2013-04-17 23:07:00,49.4,31.5,30.32,South,187,0.0,0.0,50,0.00,CLR,,0.00,WeatherDisplay:10.37,2013-04-18 03:07:00,
2013-04-17 23:12:00,49.1,32.2,30.31,South,187,0.2,1.2,52,0.00,CLR,,0.00,WeatherDisplay:10.37,2013-04-18 03:12:00,
2013-04-17 23:17:00,48.8,31.9,30.31,South,187,0.0,0.0,52,0.00,CLR,,0.00,WeatherDisplay:10.37,2013-04-18 03:17:00,
2013-04-17 23:22:00,48.7,31.4,30.31,South,187,0.0,0.0,51,0.00,CLR,,0.00,WeatherDisplay:10.37,2013-04-18 03:22:00,
2013-04-17 23:27:00,48.5,30.2,30.31,South,187,0.0,0.0,49,0.00,CLR,,0.00,WeatherDisplay:10.37,2013-04-18 03:27:00,
2013-04-17 23:32:00,48.3,34.6,30.31,South,187,0.0,0.0,59,0.00,CLR,,0.00,WeatherDisplay:10.37,2013-04-18 03:32:00,
2013-04-17 23:37:00,48.1,34.9,30.32,South,187,0.0,0.0,60,0.00,CLR,,0.00,WeatherDisplay:10.37,2013-04-18 03:37:00,
2013-04-17 23:42:00,47.7,33.2,30.32,South,187,0.0,0.0,57,0.00,CLR,,0.00,WeatherDisplay:10.37,2013-04-18 03:42:00,
2013-04-17 23:47:00,47.3,32.4,30.32,South,187,0.0,0.0,56,0.00,CLR,,0.00,WeatherDisplay:10.37,2013-04-18 03:47:00,
2013-04-17 23:52:00,47.1,32.6,30.33,South,187,0.0,0.0,57,0.00,CLR,,0.00,WeatherDisplay:10.37,2013-04-18 03:52:00,
2013-04-17 23:57:00,46.9,32.0,30.33,South,187,0.0,0.0,56,0.00,CLR,,0.00,WeatherDisplay:10.37,2013-04-18 03:57:00,